Regional Weather Roundup
Issued by NWS Wilmington, NC

Home | Current Version | Previous Version | Text Only | Print | Product List | Glossary On
Versions: 1 2 3 4 5 6 7 8 9 10 11 12 13 14 15 16 17 18 19 20 21 22 23 24 25 26 27 28 29 30 31 32 33 34 35 36 37 38 39 40 41 42 43 44 45 46 47 48 49 50
000
ASUS42 KILM 230010
RWRILM
RWRILM
REGIONAL HOURLY WEATHER ROUNDUP
NATIONAL WEATHER SERVICE WILMINGTON NC
700 PM EST MON DEC 22 2014

NOTE: "FAIR" INDICATES FEW OR NO CLOUDS BELOW 12,000 FEET WITH NO
SIGNIFICANT WEATHER AND/OR OBSTRUCTIONS TO VISIBILITY.

...............WFO WILMINGTON COUNTY WARNING AREA...............

......COASTAL NC AND SC COUNTIES......

CITY           SKY/WX    TMP DP  RH WIND       PRES   REMARKS
WILMINGTON     CLOUDY    46  45  96 N5        30.02R
SOUTHPORT      CLOUDY    46  45  97 N5        30.02S
N MYRTLE BEACH CLOUDY    46  44  93 VRB3      30.03R
MYRTLE BEACH   CLOUDY    46  43  87 N8        30.03R FOG

......INLAND NC AND SC COUNTIES.......

CITY           SKY/WX    TMP DP  RH WIND       PRES   REMARKS
LUMBERTON      CLOUDY    43  40  89 N8        30.06R FOG
ELIZABETHTOWN  CLOUDY    42  42 100 N3        30.04R FOG
WHITEVILLE     CLOUDY    44  42  96 N5        30.03R FOG
FLORENCE       CLOUDY    43  41  93 NE10      30.03S FOG
DARLINGTON     CLOUDY    43  37  81 NE8       30.05R

....................REST OF NORTH CAROLINA......................

.........EASTERN NC.........

CITY           SKY/WX    TMP DP  RH WIND       PRES   REMARKS
CAPE HATTERAS  CLOUDY    51  51 100 NW3       29.95F FOG
JACKSONVILLE   CLOUDY    45  41  87 NW6       30.04R
MOREHEAD CITY  CLOUDY    50  49  96 NW8       30.01R FOG
KENANSVILLE    CLOUDY    42  41  99 N8        30.03F FOG
NEW BERN       CLOUDY    48  45  89 NW10      30.03F FOG
ELIZABETH CITY CLOUDY    56  51  84 N10       30.00R

.........CENTRAL NC.........

CITY           SKY/WX    TMP DP  RH WIND       PRES   REMARKS
RALEIGH DURHAM DRIZZLE   38  35  89 VRB6      30.07F FOG     WCI  33
ROCKY MOUNT    CLOUDY    41  39  93 N8        30.06F FOG
ROANOKE RAPIDS NOT AVBL
FAYETTEVILLE   CLOUDY    40  39  97 N12       30.05R FOG     WCI  33
HOFFMAN        CLOUDY    39  39 100 N7        30.07S FOG     WCI  34

.........WESTERN NC.........

CITY           SKY/WX    TMP DP  RH WIND       PRES   REMARKS
CHARLOTTE      CLOUDY    38  35  89 N10       30.05S FOG     WCI  31
GREENSBORO     CLOUDY    35  34  96 NE10G16   30.07R FOG     WCI  27
HICKORY        NOT AVBL
BOONE          NOT AVBL
ASHEVILLE      NOT AVBL

.....................REST OF SOUTH CAROLINA.....................

.........EASTERN SC.........

CITY           SKY/WX    TMP DP  RH WIND       PRES   REMARKS
CHARLESTON     CLOUDY    47  45  93 N7        29.98F
BEAUFORT MCAS  LGT RAIN  49  48  97 NE6       29.97S
HILTON HEAD    CLOUDY    50  50 100 N6        29.98R

.........CENTRAL SC.........

CITY           SKY/WX    TMP DP  RH WIND       PRES   REMARKS
COLUMBIA       CLOUDY    45  42  89 NE3       30.02R
ORANGEBURG     CLOUDY    44  42  93 NE7       30.00F FOG
SUMTER SHAW    CLOUDY    43  42  97 NE10      29.99F FOG

.........WESTERN SC.........

CITY           SKY/WX    TMP DP  RH WIND       PRES   REMARKS
GREENVILLE     NOT AVBL
ROCK HILL      CLOUDY    39  37  92 NE5       30.04R FOG
ANDERSON       CLOUDY    41  39  93 NE8       30.00F
CLEMSON        NOT AVBL
GREENWOOD      LGT RAIN  41  39  93 NE9       30.02S FOG


...................COASTAL AND OFFSHORE REPORTS..................

................LOCAL PIERS AND NC RESERVE................


STATION/POSITION TIME  SKY/WX   TEMP    WIND        PRES    VSBY
                                AIR SEA DIR/SP/G
                 (UTC)          (F)     (DEG/KT/KT) (MB)    (MI)
JOHNY MRCER PIER 0000                   360/  7/ 11 1015.7F
NC RESRV MASNBRO 2300            47      50/  4     1015.0F
OCEAN CREST PIER NOT AVBL
SPRINGMAID  PIER 0000            46 53  360/  3/  5 1016.8R


................COASTAL AND OFFSHORE BUOYS................


STATION/POSITION TIME  SKY/WX   TEMP    WIND        PRES    VSBY
                                AIR SEA DIR/SP/G
                 (UTC)          (F)     (DEG/KT/KT) (MB)    (MI)
DIMNDSHOAL 41025 0000            61                 1014.1S
WVE H/P(F/S)=  7/ 9

CAPE LOOKOUT     2300            51     340/  4/  5 1014.8F
ONSLOW BAY 41036 0000            53 60   40/  4/  6 1016.3F
WVE H/P(F/S)=  4/ 7 WND WVE H/P(F/S)=  2/ 4 SWL H/P/D(F/S/D)=  3/120/ 7

5 WRITEBCH 41038 NOT AVBL
MASONBORO  41110 0000               54                N/A
WVE H/P(F/S)=  3/ 8 WND WVE H/P(F/S)=  3/ 8

WILM HARBR 41108 0000               54                N/A
WVE H/P(F/S)=  3/ 8 WND WVE H/P(F/S)=  3/ 8

27WRITEBCH 41037 2300            49 62  360/  8/ 10 1017.0R
FRYING PAN 41013 0000            59 68   90/ 14/ 16 1015.0F
WVE H/P(F/S)=  4/ 7 WND WVE H/P(F/S)=  3/ 5 SWL H/P/D(F/S/D)=  3/ 90/ 7

SUNST NRSH 41024 2300            46     360/ 12/ 14   N/A
CAPRS NRSH 41029 2300            50      20/ 12/ 14   N/A
EDISTO     41004 0000            65 73   60/  8/ 12 1013.9F
WVE H/P(F/S)=  4/ 8 WND WVE H/P(F/S)=  2/ 4 SWL H/P/D(F/S/D)=  3/ 8



..........OFFSHORE BUOYS BEYOND 100 NM OFFSHORE...........
.....IN A TRIANGLE---HAT TO BERMUDA TO BAHAMAS TO HAT.....


STATION/POSITION TIME  SKY/WX   TEMP    WIND        PRES    VSBY
                                AIR SEA DIR/SP/G
                 (UTC)          (F)     (DEG/KT/KT) (MB)    (MI)
150E HAT   41001 NOT AVBL
W BERMUDA  41048 NOT AVBL
ATLANTIC S 41049 2244            74 78  130/  6/ 10 1020.6R
WVE H/P(F/S)=  4/ 7 WND WVE H/P(F/S)=  2/ 4 SWL H/P/D(F/S/D)=  3/ 20/ 7

E BAHAMAS  41046 NOT AVBL
NE BAHAMAS 41047 NOT AVBL
120E CANVRL41010 0000            76 77  190/ 14/ 17 1015.2R
WVE H/P(F/S)=  4/ 9 WND WVE H/P(F/S)=  3/ 4 SWL H/P/D(F/S/D)=  3/ 70/ 9


END


USA.gov is the U.S. government's official web portal to all federal, state and local government web resources and services.